EHI
0 0 0 0 0 0 0 0 0 0 0 0 0 0 0 0 0 0 0 0 0 0 0 0 0 0 0 0 0 0 0 0 0 0 0 0 0 0 0 0 0 0 0
0 0 0 0 0 0 0 0 0 0 0 0 0 0 0 0 0 0 0 0 0 0 0 0 0 0 0 0 0 0 0 0 0 0 0 0 0 0 0 0 0 0 0
0 0 0 0 0 0 0 0 0 0 0 0 0 0 0 0 0 0 0 0 0 0 0 0 0 0 0 0 0 0 0 0 0 0 0 0 0 0 0 0 0 0 0
0 0 0 0 0 0 0 0 0 0 0 0 0 0 0 0 0 0 0 0 0 0 0 0 0 0 0 0 0 0 0 0 0 0 0 0 0 0 0 0 0 0 0
0 0 0 0 0 0 0 0 0 0 0 0 0 0 0 0 0 0 0 0 0 0 0 0 0 0 0 0 0 0 0 0 0 0 0 0 0 0 0 0 0 0 0
0 0 0 0 0 0 0 0 0 0 0 0 0 0 0 0 0 0 0 0 0 0 0 0 0 0 0 0 0 0 0 0 0 0 0 0 0 0 0 0 0 0 0
0 0 0 0 0 0 0 0 0 0 0 0 0 0 0 0 0 0 0 0 0 0 0 0 0 0 0 0 0 0 0 0 0 0 0 0 0 0 0 0 0 0 0
0 0 0 0 0 0 0 0 0 0 0 0 0 0 0 0 0 0 0 0 0 0 0 0 0 0 0 0 0 0 0 0 0 0 0 0 0 0 0 0 0 0 0
0 0 0 0 0 0 0 0 0 0 0 0 0 0 0 0 0 0 0 0 0 0 0 0 0 0 0 0 0 0 0 0 0 0 0 0 0 0 0 0 0 0 0
0 0 0 0 0 0 0 0 0 0 0 0 0 0 0 0 0 0 0 0 0 0 0 0 0 0 0 0 0 0 0 0 0 0 0 0 0 0 0 0 0 0 0
0 0 0 0 0 0 0 0 0 0 0 0 0 0 0 0 0 0 0 0 0 0 0 0 0 0 0 0 0 0 0 0 0 0 0 0 0 0 0 0 0 0 0
0 0 0 0 0 0 0 0 0 0 0 0 0 0 0 0 0 0 0 0 0 0 0 0 0 0 0 0 0 0 0 0 0 0 0 0 0 0 0 0 0 0 0
0 0 0 0 0 0 0 0 0 0 0 0 0 0 0 0 0 0 0 0 0 0 0 0 0 0 0 0 0 0 0 0 0 0 0 0 0 0 0 0 0 0 0
0 0 0 0 0 0 0 0 0 0 0 0 0 0 0 0 0 0 0 0 0 0 0 0 0 0 0 0 0 0 0 0 0 0 0 0 0 0 0 0 0 0 0
0 0 0 0 0 0 0 0 0 0 0 0 0 0 0 0 0 0 0 0 0 0 0 0 0 0 0 0 0 0 0 0 0 0 0 0 0 0 0 0 0 0 0
0 0 0 0 0 0 0 0 0 0 0 0 0 0 0 0 0 0 0 0 0 0 0 0 0 0 0 0 0 0 0 0 0 0 0 0 0 0 0 0 0 0 0
0 0 0 0 0 0 0 0 0 0 0 0 0 0 0 0 0 0 0 0 0 0 0 0 0 0 0 0 0 0 0 0 0 0 0 0 0 0 0 0 0 0 0
0 0 0 0 0 0 0 0 0 0 0 0 0 0 0 0 0 0 0 0 0 0 0 0 0 0 0 0 0 0 0 0 0 0 0 0 0 0 0 0 0 0 0
0 0 0 0 0 0 0 0 0 0 0 0 0 0 0 0 0 0 0 0 0 0 0 0 0 0 0 0 0 0 0 0 0 0 0 0 0 0 0 0 0 0 0
0 0 0 0 0 0 0 0 0 0 0 0 0 0 0 0 0 0 0 0 0 0 0 0 0 0 0 0 0 0 0 0 0 0 0 0 0 0 0 0 0 0 0
0 0 0 0 0 0 0 0 0 0 0 0 0 0 0 0 0 0 0 0 0 0 0 0 0 0 0 0 0 0 0 0 0 0 0 0 0 0 0 0 0 0 0
0 0 0 0 0 0 0 0 0 0 0 0 0 0 0 0 0 0 0 0 0 0 0 0 0 0 0 0 0 0 0 0 0 0 0 0 0 0 0 0 0 0 0
0 0 0 0 0 0 0 0 0 0 0 0 0 0 0 0 0 0 0 0 0 0 0 0 0 0 0 0 0 0 0 0 0 0 0 0 0 0 0 0 0 0 0
0 0 0 0 0 0 0 0 0 0 0 0 0 0 0 0 0 0 0 0 0 0 0 0 0 0 0 0 0 0 0 0 0 0 0 0 0 0 0 0 0 0 0
0 0 0 0 0 0 0 0 0 0 0 0 0 0 0 0 0 0 0 0 0 0 0 0 0 0 0 0 0 0 0 0 0 0 0 0 0 0 0 0 0 0 0
0 0 0 0 0 0 0 0 0 0 0 0 0 0 0 0 0 0 0 0 0 0 0 0 0 0 0 0 0 0 0 0 0 0 0 0 0 0 0 0 0 0 0
Wind_Speed
7 6 6 5 4 4 3 3 2 2 2 3 3 3 4 4 4 4 4 5 5 5 5 6 6 6 4 4 4 3 3 4 4 4 4 5 7 7 6 6 6 5 3
7 6 6 5 5 4 3 3 2 3 3 3 3 3 4 4 4 4 4 4 5 5 6 6 6 4 5 5 4 4 4 4 5 6 5 5 7 7 7 7 6 5 5
7 7 7 6 5 4 4 3 3 3 3 3 3 4 4 3 3 3 3 3 4 4 5 5 6 6 5 5 5 5 4 4 4 5 5 5 5 6 7 6 6 5 6
8 7 7 6 5 5 4 3 3 3 2 3 3 3 3 3 3 3 3 3 3 4 4 5 5 6 6 6 5 5 5 5 5 5 5 5 5 6 6 6 6 6 6
9 8 7 6 6 5 5 4 3 3 2 2 3 3 3 3 4 4 3 3 3 3 4 4 5 5 7 7 6 6 6 5 5 5 5 6 5 6 6 6 7 7 7
9 8 7 7 6 5 5 4 4 3 2 2 2 2 3 3 6 5 5 3 3 3 4 4 3 3 4 3 4 6 7 7 7 6 6 7 8 8 7 7 8 8 7
10 9 8 8 7 6 5 5 4 3 3 2 2 2 2 4 4 4 5 4 3 4 4 4 4 4 5 6 4 5 5 5 7 8 9 9 9 9 9 10 9 9 9
10 9 9 8 7 6 5 4 4 3 3 2 1 1 1 3 4 3 5 4 3 3 4 5 5 5 6 8 8 8 7 6 6 7 8 9 10 10 10 10 11 11 11
11 10 10 9 8 7 6 5 4 3 3 2 1 1 1 1 2 3 5 3 3 3 3 4 5 6 7 9 9 8 8 7 5 7 10 11 12 12 10 8 9 9 9
11 10 9 9 8 7 7 5 4 4 3 2 2 1 1 1 2 3 6 3 4 4 3 3 2 5 8 9 9 9 9 9 10 9 9 9 10 8 8 9 8 9 10
10 10 9 9 8 7 6 5 5 4 3 3 2 2 2 1 1 1 5 4 4 5 4 4 3 4 8 10 10 9 9 11 11 10 9 8 8 7 7 7 8 8 10
11 10 9 9 8 7 6 5 5 4 4 3 3 3 2 2 1 1 3 5 7 6 5 5 4 6 9 11 9 9 11 12 8 8 8 8 8 8 8 9 10 10 10
11 11 10 9 8 7 7 6 5 4 4 3 3 3 2 2 1 3 5 6 6 6 5 6 8 10 11 9 7 9 10 8 7 8 8 8 8 9 9 9 10 10 12
12 11 10 9 9 8 6 5 5 5 4 4 3 3 3 3 3 2 3 4 5 6 6 6 8 10 9 9 9 7 6 6 7 8 8 8 8 8 9 8 9 9 9
12 11 10 9 8 7 7 5 6 5 4 4 4 4 4 4 2 3 5 5 5 6 7 7 7 7 7 6 6 7 7 7 7 7 8 9 9 9 9 9 8 9 10
11 11 8 8 7 7 6 6 5 6 5 6 6 6 5 4 4 5 6 8 8 8 8 7 7 7 8 8 8 8 7 7 8 9 9 9 9 10 10 9 9 10 10
11 10 8 8 7 7 7 7 6 7 8 9 10 9 9 7 7 8 8 8 9 9 8 7 7 7 8 8 8 8 9 8 8 9 9 10 10 10 10 10 10 10 10
11 9 8 7 7 7 7 7 6 6 6 6 9 11 11 10 10 9 9 8 7 7 7 8 8 8 8 8 8 9 9 9 9 9 10 10 10 10 11 11 10 11 11
10 8 8 7 7 7 7 7 7 8 7 6 6 7 9 10 11 11 9 8 8 8 8 8 8 8 8 9 9 9 10 10 10 10 10 11 10 11 11 11 11 13 12
8 8 8 7 7 7 7 7 7 7 7 7 7 7 6 6 7 7 8 8 8 8 8 9 9 9 9 9 9 9 10 10 11 10 11 10 10 10 12 13 12 12 11
7 8 10 8 7 7 7 8 8 7 8 7 8 7 7 8 8 9 8 8 8 9 9 9 9 9 9 9 9 11 12 11 11 11 11 11 11 11 11 11 12 12 12
7 7 8 8 7 7 7 8 8 8 8 9 8 7 8 9 9 9 9 9 9 9 9 9 9 9 9 9 10 11 11 12 11 11 11 11 11 11 12 12 12 12 12
7 7 7 7 7 7 8 8 8 8 9 9 8 8 8 8 9 9 9 9 9 9 9 9 10 10 10 10 10 10 11 12 11 12 12 12 12 12 12 12 14 15 14
7 8 8 7 7 7 8 8 8 9 9 9 9 9 9 9 9 10 10 9 9 9 9 9 10 13 16 13 10 10 11 12 13 12 15 14 14 13 12 13 14 15 15
7 7 7 7 7 8 8 8 9 9 9 9 9 9 9 9 9 9 9 9 11 11 12 12 10 12 15 17 16 14 13 12 13 13 14 13 15 15 15 16 14 15 15
7 7 7 7 7 7 8 8 9 9 9 9 8 9 9 9 9 9 9 9 10 10 11 11 13 15 17 15 16 16 14 14 14 16 14 13 15 14 15 13 17 15 16
Wind_Direction
158 150 147 141 136 133 115 98 87 76 76 67 61 57 57 57 61 60 41 38 34 40 38 37 31 17 13 14 7 2 359 345 331 338 347 349 348 345 347 341 334 323 331
158 154 150 144 147 143 127 118 105 88 76 68 71 68 64 55 50 52 46 40 37 34 32 29 27 27 19 11 1 1 1 347 333 332 334 347 345 344 342 334 332 332 324
157 156 155 154 148 141 130 119 110 100 92 81 73 66 61 53 49 40 37 34 38 35 26 19 16 17 12 14 2 359 352 347 335 322 333 340 330 340 334 330 330 329 319
158 159 157 151 147 143 131 127 120 109 99 86 75 68 61 52 38 33 29 28 32 30 23 17 11 9 4 359 355 353 346 339 335 326 326 330 328 336 327 329 326 327 319
161 161 157 151 145 141 136 134 122 110 101 90 82 74 68 52 35 18 23 19 17 19 16 16 24 19 11 358 349 344 340 331 328 325 323 323 326 328 330 326 318 315 311
165 160 152 154 148 147 144 138 129 122 109 98 91 82 72 58 49 19 340 352 353 357 360 357 7 4 359 326 328 325 323 323 326 319 315 316 321 325 325 313 312 310 307
164 159 160 160 157 157 151 146 147 145 128 119 105 91 77 70 55 22 340 322 338 347 345 347 347 355 334 335 320 284 282 277 290 303 306 312 316 321 317 310 306 302 298
165 164 164 165 162 160 158 158 167 158 144 154 144 117 74 60 42 8 320 301 323 334 335 334 330 337 357 340 325 319 317 316 307 296 304 308 311 314 309 302 299 294 289
170 171 170 170 166 165 166 169 168 166 167 179 175 196 223 112 59 348 307 307 310 320 327 334 331 330 3 334 314 314 313 313 295 278 286 288 293 290 290 292 292 292 292
174 174 172 171 170 172 173 173 169 176 184 191 189 226 248 300 66 340 306 296 305 314 319 318 0 336 339 326 313 314 312 317 316 307 293 286 286 287 273 280 290 291 294
169 170 171 172 174 173 173 175 179 183 191 206 208 222 237 276 167 307 308 299 307 307 310 311 338 350 321 314 306 305 315 313 305 302 300 301 301 301 298 293 290 288 289
166 169 173 173 174 172 175 182 187 189 199 210 221 225 234 229 278 271 293 294 305 299 301 307 327 329 311 304 299 305 303 297 293 296 298 300 303 304 304 303 297 291 285
168 174 177 177 178 180 182 186 192 198 213 220 225 237 240 252 216 219 254 268 278 282 293 309 303 298 294 287 281 288 289 288 295 296 298 301 304 304 304 301 297 293 291
174 178 181 183 184 187 192 197 201 206 214 224 231 241 250 253 264 270 272 263 251 259 275 279 263 263 263 273 282 280 283 293 298 296 297 298 299 299 296 298 297 297 294
180 182 186 189 190 194 196 205 213 216 226 234 240 247 254 259 288 318 296 295 302 308 306 292 291 293 294 295 296 298 296 293 291 292 295 297 297 297 297 298 294 294 292
185 186 188 189 193 199 202 204 212 232 221 229 245 258 255 257 275 273 275 281 287 291 287 282 286 289 293 297 299 298 296 296 298 297 295 294 294 296 297 295 292 290 290
191 189 190 194 196 203 207 214 217 216 221 228 231 236 246 257 256 261 267 272 271 270 270 276 282 285 289 291 293 294 295 296 296 293 291 291 291 291 292 292 291 290 289
198 194 193 197 203 208 212 219 225 230 227 228 223 223 229 240 247 253 258 266 263 254 266 274 280 283 285 288 289 290 292 293 291 289 289 289 288 288 289 290 290 291 292
200 198 199 201 206 212 216 221 227 233 238 241 242 223 218 231 238 242 242 255 267 271 272 273 276 279 281 283 286 287 288 288 288 287 286 285 285 287 288 288 289 290 288
201 197 199 204 209 214 218 222 226 232 238 242 245 249 240 241 250 249 245 255 264 269 272 274 275 277 279 281 283 284 285 285 286 284 285 284 284 286 286 287 288 287 287
199 194 197 210 216 219 222 225 229 234 240 246 250 250 246 254 258 261 261 261 264 268 272 274 276 277 277 279 280 282 283 284 285 285 286 286 285 283 283 283 284 285 286
199 201 205 213 218 222 226 230 234 238 243 249 254 248 224 243 257 261 262 264 266 268 271 273 274 275 275 277 279 281 282 283 284 284 286 287 286 284 283 283 284 284 285
205 209 212 217 220 219 226 234 237 241 245 249 254 257 251 252 256 260 264 268 271 273 273 272 273 274 274 275 277 277 279 282 286 288 290 288 285 283 282 282 283 285 284
208 213 218 221 224 227 230 236 240 245 249 252 255 256 257 258 261 264 268 271 272 273 274 273 273 275 278 279 277 277 278 282 288 289 289 286 285 282 281 280 280 281 281
213 216 222 227 228 232 237 241 246 249 251 253 257 260 261 263 264 266 269 271 274 274 277 278 276 277 279 280 281 281 281 280 276 282 288 284 281 280 278 279 279 281 279
217 222 227 231 235 239 242 246 249 252 254 257 259 262 264 265 267 269 270 271 274 276 279 280 278 280 282 283 284 287 285 279 276 273 277 280 279 276 277 276 279 279 280